Zurück zum Katalog

DELTA 1 DEB

AktivUNKNOWN
NORAD 9702·DEBRIS·🇺🇸 United States

Gestartet Nov 6, 1973 von Vandenberg Space Force Base

Loading…

Nächste Überflüge (nächste 24 Stunden)

TLE

AktuellSource: Space-Track

Epoche: Sep 14, 2026, 07:01 UTC

1 09702U 73086GA  26257.29236546  .00000397  00000-0  60244-2 0  9998
2 09702 103.0668 180.1742 0694543  95.3476  49.9517 11.43024341200765

Verfolge DELTA 1 DEB in Echtzeit mit AllMySat

Download on the App Store